Weather observations for the past three days for
Punta Gorda, Charlotte County Airport
Imperial (Metric)
Date Time (edt) Wind (mph) Vis. (mi.) Weather Sky Cond. Temperature (ºF) Relative Humidity Wind Chill (°F) Heat Index (°F) Pressure Precipitation (in)
Air Dwpt 6 hour altimeter (in) sea level (mb) 1 hr 3 hr 6 hr
Max. Min.
22 06:53 Calm 9.00 Fair CLR 77 73.9 90% 78 30.03 1016.7
22 04:53 NE 5 10.00 Fair CLR 78.1 75 90% 81 30.01 1016.1
22 03:53 NE 5 10.00 Fair CLR 78.1 75.9 93% 81 30.02 1016.4
22 02:53 NE 3 10.00 Fair CLR 79 75.9 90% 83 30.04 1017.2
22 01:53 N 5 10.00 Fair CLR 79 75.9 82.9 79 90% 83 30.06 1017.9
22 00:53 E 5 10.00 Fair CLR 80.1 77 90% 86 30.07 1018.2
21 23:53 NE 3 10.00 Fair CLR 81 77 88% 88 30.08 1018.5
21 22:53 Calm 10.00 Fair CLR 81 77 88% 88 30.08 1018.4
21 21:53 N 3 10.00 Fair CLR 82 75.9 82% 89 30.08 1018.4
21 20:53 Calm 10.00 Partly Cloudy FEW044 SCT055 82 75 79% 89 30.06 1017.7
21 19:53 W 3 10.00 Fair CLR 82.9 73 99 82.9 72% 89 30.02 1016.5
21 18:53 S 12 10.00 Fair CLR 84 73.9 72% 91 30.03 1016.6
21 17:53 E 7 10.00 Mostly Cloudy BKN070 93 73 52% 102 30.01 1016.0
21 15:53 E 9 10.00 A Few Clouds FEW050 FEW070 97 73 46% 107 30 1015.8
21 14:53 NE 9 10.00 A Few Clouds FEW047 98.1 73.9 46% 110 30.03 1016.6
21 13:53 E 10 10.00 Fair CLR 96.1 73.9 97 79 49% 107 30.05 1017.6
21 12:53 NE 10 10.00 Partly Cloudy SCT036 95 75 53% 107 30.08 1018.3
21 11:53 NE 8 10.00 Mostly Cloudy FEW034 SCT050 BKN060 91 75.9 61% 103 30.08 1018.6
21 10:53 E 3 10.00 A Few Clouds FEW023 90 77 66% 103 30.09 1018.7
21 09:53 NE 5 10.00 Fair CLR 88 78.1 73% 102 30.09 1018.7
21 08:53 E 3 10.00 Fair CLR 82.9 77 82% 92 30.09 1018.8
21 07:53 NE 3 10.00 Fair CLR 79 75.9 80.1 77 90% 83 30.08 1018.5
21 06:53 NE 3 10.00 Fair CLR 77 75 94% 78 30.07 1018.1
21 05:53 E 3 10.00 Fair CLR 77 73.9 90% 78 30.06 1017.6
21 04:53 E 3 10.00 Fair CLR 78.1 73.9 87% 81 30.07 1018.0
21 03:53 E 3 10.00 Fair CLR 78.1 75 90% 81 30.06 1017.7
21 02:53 E 5 10.00 Fair CLR 79 75.9 90% 83 30.07 1018.2
21 01:53 NE 5 10.00 Mostly Cloudy BKN047 80.1 75.9 82.9 79 87% 85 30.12 1019.8
21 00:53 E 6 10.00 Fair CLR 80.1 75.9 87% 85 30.13 1020.0
20 23:53 NE 3 10.00 Fair CLR 80.1 75.9 87% 85 30.13 1020.1
20 22:53 NE 3 10.00 Fair CLR 80.1 75.9 87% 85 30.14 1020.4
20 21:53 E 5 10.00 Fair CLR 80.1 75.9 87% 85 30.13 1020.3
20 20:53 NE 7 10.00 A Few Clouds FEW055 81 75 82% 87 30.11 1019.4
20 19:53 NE 6 10.00 Fair CLR 82.9 75.9 96.1 82.9 79% 91 30.09 1018.9
20 18:53 E 6 10.00 Fair CLR 84 72 67% 90 30.08 1018.4
20 17:53 E 7 10.00 Thunderstorm in Vicinity FEW085 84 70 63% 88 30.09 1018.8
20 16:53 SW 13 10.00 Thunderstorm in Vicinity SCT045 95 75.9 54% 108 30.09 1018.7
20 15:53 W 10 G 17 10.00 Partly Cloudy SCT045 96.1 75 51% 108 30.09 1018.8
20 14:53 W 10 10.00 A Few Clouds FEW048 95 75 53% 107 30.11 1019.4
20 13:53 SE 6 10.00 Mostly Cloudy BKN042 BKN060 93 77 96.1 82 60% 107 30.12 1019.8
20 12:53 SE 8 10.00 Mostly Cloudy SCT040 SCT048 BKN060 93 75 56% 104 30.13 1020.0
20 11:53 S 10 10.00 A Few Clouds FEW035 93 75.9 58% 106 30.13 1020.0
20 10:53 SE 9 10.00 Fair CLR 91 75.9 61% 103 30.13 1020.0
20 09:53 SE 10 10.00 Fair CLR 88 77 70% 100 30.13 1020.0
20 08:53 SE 5 10.00 Fair CLR 84 73.9 72% 91 30.11 1019.4
20 07:53 Calm 10.00 Fair CLR 82 73.9 82 78.1 77% 88 30.1 1019.2
20 06:53 E 3 10.00 Fair CLR 79 73 82% 82 30.09 1018.9
20 05:53 Calm 10.00 Fair CLR 79 73 82% 82 30.07 1018.2
20 04:53 SE 5 10.00 Fair CLR 79 73.9 85% 83 30.08 1018.4
20 03:53 SE 6 10.00 Fair CLR 80.1 75.9 87% 85 30.07 1018.3
20 02:53 SE 5 10.00 Fair CLR 80.1 75.9 87% 85 30.08 1018.6
20 01:53 SE 10 10.00 Fair CLR 81 75.9 87.1 81 85% 87 30.12 1019.7
20 00:53 SE 6 10.00 Fair CLR 81 75.9 85% 87 30.12 1020.0
19 23:53 SE 3 10.00 Fair CLR 82 75.9 82% 89 30.12 1019.9
19 22:53 E 3 10.00 Fair CLR 82.9 75.9 79% 91 30.11 1019.6
19 21:53 E 6 10.00 Mostly Cloudy BKN055 84 75.9 77% 93 30.11 1019.5
19 20:53 E 6 10.00 A Few Clouds FEW050 84 75 74% 92 30.09 1018.9
19 19:53 Calm 10.00 Fair CLR 86 73.9 96.1 84 67% 94 30.08 1018.3
19 18:53 SE 3 10.00 Fair CLR 87.1 73 63% 95 30.04 1017.2
19 17:53 S 8 10.00 Fair CLR 89.1 72 57% 96 30.04 1017.2
19 16:53 S 12 10.00 Fair CLR 89.1 75.9 65% 100 30.05 1017.5
19 15:53 Vrbl 3 10.00 Thunderstorm in Vicinity SCT065 BKN075 86 73.9 67% 94 30.06 1017.9
19 14:53 SW 9 10.00 Thunderstorm in Vicinity OVC041 91.9 75.9 60% 104 30.07 1018.3
19 13:53 SE 9 10.00 Fair CLR 95 73 96.1 80.1 49% 105 30.09 1018.8
19 12:53 Calm 10.00 A Few Clouds FEW042 93.9 73.9 52% 104 30.1 1019.2
19 11:53 Calm 10.00 Fair CLR 91.9 73.9 56% 102 30.1 1019.1
19 10:53 Vrbl 5 10.00 Fair CLR 91 73.9 57% 101 30.1 1019.2
19 09:53 S 7 10.00 Fair CLR 88 75.9 68% 99 30.1 1019.0
19 08:53 SE 8 10.00 Fair CLR 84.9 77 77% 95 30.09 1018.9
19 07:53 SE 5 10.00 Fair CLR 80.1 75.9 80.1 75.9 87% 85 30.08 1018.5
Date Time (edt) Wind (mph) Vis. (mi.) Weather Sky Cond. Air Dwpt Max. Min. Relative Humidity Wind Chill (°F) Heat Index (°F) altimeter (in) sea level (mb) 1 hr 3 hr 6 hr
6 hour
Temperature (ºF) Pressure Precipitation (in)